Location: Squirrel Cove
(50.1074°N, 124.9139°W)
Time: 12:23:29
(UTC-07:00)

PCSat - Pass Details

Date: 21 May 2022
Orbit: 784 x 795 km, 67.1° (Epoch: 26 June)

Event Time Altitude Azimuth Distance (km) Brightness Sun altitude
Rises 02:58:45 0° 324° (NW) 3,306 13.2 -16.1°
Reaches altitude 10° 03:01:17 10° 331° (NNW) 2,374 12.5 -15.9°
Maximum altitude 03:06:32 47° 45° (NE) 1,054 10.7 -15.6°
Drops below altitude 10° 03:11:45 10° 119° (ESE) 2,361 12.0 -15.2°
Sets 03:14:15 0° 125° (SE) 3,286 12.7 -15.0°
